GFSSW_850_thetae_159.txt.gz
Theta_e
301 301 301 302 302 302 302 302 302 302 302 303 305 306 307 307 307 307 306 306 305 305 306 305 304 305 311 312 313 315 320 318 317 315 315 313 314 313 314 315 315 316 317 330 325
301 301 302 302 302 302 302 302 302 302 302 305 307 308 309 308 308 308 309 309 309 308 308 308 311 308 308 312 312 316 318 319 318 317 315 315 315 315 316 316 316 318 318 326 333
302 302 302 302 302 302 302 303 302 302 303 307 308 309 309 308 307 310 310 310 308 309 307 307 308 312 308 312 312 312 316 317 316 317 315 316 315 315 316 317 317 318 318 328 348
302 302 302 302 302 302 303 302 302 304 307 309 309 309 309 309 310 307 309 309 310 312 307 307 310 313 312 310 310 313 312 312 314 314 313 315 316 319 318 317 318 317 317 320 347
302 302 302 302 302 303 303 303 306 308 309 310 310 309 309 309 309 307 309 308 308 309 308 310 312 311 311 310 310 311 310 312 313 313 314 314 315 315 316 318 319 319 320 320 326
302 302 302 303 303 304 305 308 309 309 309 309 310 310 309 310 310 309 309 309 309 309 308 308 312 312 311 310 310 309 310 311 311 311 313 314 314 315 315 316 317 318 319 320 320
302 304 306 304 304 307 308 308 308 308 308 310 310 309 309 310 310 310 310 310 309 309 309 309 309 311 310 311 311 311 312 312 312 312 312 312 314 315 314 315 316 318 319 319 319
303 307 304 305 306 308 308 308 308 309 309 310 310 310 310 311 311 311 311 311 311 310 310 310 309 309 309 309 309 310 309 311 313 313 311 313 312 315 314 314 315 315 315 316 318
306 305 306 307 307 309 309 311 311 309 310 310 310 310 311 311 310 310 311 311 311 311 311 311 309 310 308 310 310 309 309 310 312 314 312 313 312 313 314 315 315 315 315 315 317
306 307 307 308 309 310 311 312 311 310 311 311 310 310 311 311 310 309 312 311 311 311 310 310 310 310 309 310 311 310 309 309 310 312 313 314 313 314 314 316 316 316 316 317 317
304 308 308 309 311 311 312 311 311 310 310 311 311 310 311 311 309 309 311 311 311 311 312 310 311 312 312 311 311 311 311 311 310 310 313 313 315 315 315 315 316 316 317 317 318
302 308 309 309 310 310 311 311 310 310 310 311 311 311 311 310 309 309 310 311 310 313 310 311 313 312 312 311 310 311 312 312 311 310 310 311 312 314 315 316 316 317 317 318 318
302 307 309 309 309 310 310 310 310 310 311 311 311 311 310 309 309 310 312 312 312 313 313 314 313 312 311 312 312 312 312 312 311 311 310 310 310 311 313 314 315 317 317 318 318
302 305 309 308 309 310 310 310 311 310 313 312 310 310 310 309 311 310 311 313 313 313 313 313 313 313 313 313 312 314 312 311 311 311 312 311 310 310 312 313 316 317 318 317 318
302 307 310 308 309 310 310 310 312 310 311 309 310 310 310 309 309 311 311 312 313 312 312 314 314 314 315 315 314 315 312 312 312 312 311 310 312 312 313 316 316 318 318 318 318
302 311 309 309 309 310 310 311 312 311 309 310 310 310 311 310 310 311 311 312 312 313 312 313 312 313 314 314 313 313 313 312 311 311 311 310 311 311 313 316 318 317 319 318 317
302 309 309 308 309 310 310 310 312 311 309 311 311 310 310 310 311 311 312 312 313 314 315 313 314 313 314 314 312 313 314 315 315 314 312 310 310 311 315 317 318 319 319 318 317
303 309 308 308 308 309 310 310 309 309 310 310 310 310 311 311 311 311 312 314 312 313 316 315 315 314 314 314 315 315 313 313 312 312 311 311 312 312 312 316 318 319 319 317 316
303 309 308 306 307 309 309 313 310 309 310 310 310 311 311 311 311 312 313 313 312 314 315 318 316 313 314 314 313 314 314 311 314 310 310 311 312 314 312 315 318 319 318 318 316
303 309 308 304 307 308 310 311 311 309 309 310 311 311 312 312 312 312 313 312 313 313 312 312 316 312 314 314 313 313 311 313 313 313 313 310 311 312 315 314 318 320 319 318 318
302 308 305 304 308 307 311 309 308 309 309 310 311 311 312 313 312 313 313 312 312 313 312 308 309 314 315 315 314 315 314 313 312 313 316 313 311 312 319 317 320 321 319 318 324
302 306 304 304 307 304 308 306 306 309 308 309 310 312 312 312 313 314 313 312 311 312 309 309 311 317 314 313 313 313 314 313 315 311 315 322 318 317 320 321 321 321 317 323 331
302 303 303 304 307 307 305 305 306 308 308 309 311 311 311 312 312 312 312 312 311 311 308 310 314 318 315 315 314 316 314 313 314 315 315 317 328 330 331 328 318 320 324 334 335
302 305 303 303 303 305 305 306 307 307 307 308 309 309 311 311 310 313 312 312 310 310 312 310 313 318 317 315 314 315 314 313 314 315 315 315 315 321 332 325 327 331 334 334 331
301 303 302 305 305 304 303 304 306 307 306 306 310 311 310 311 311 312 311 311 310 311 310 310 315 316 316 317 316 316 315 316 316 315 319 317 319 320 331 333 335 333 332 331 328
302 303 302 303 303 304 304 307 306 306 305 309 310 310 309 311 311 311 311 310 311 310 310 309 316 316 318 318 317 315 315 316 317 317 318 318 319 321 332 333 332 330 328 327 325
301 301 301 303 303 304 305 305 305 305 306 306 307 308 311 311 310 309 308 308 308 310 310 311 316 318 321 319 319 320 319 319 319 317 317 320 322 331 332 331 329 327 326 323 321

GFSSW_850_thetae_162.txt.gz
Theta_e
302 303 303 303 302 302 302 302 303 303 303 303 305 307 308 307 307 309 310 309 307 307 309 313 309 308 311 314 314 317 321 321 321 322 321 321 319 318 318 319 320 319 318 322 345
302 303 303 302 302 302 302 303 303 302 303 306 307 308 308 309 309 311 310 308 308 308 313 311 312 311 309 311 314 316 318 318 319 321 321 321 320 319 318 318 319 319 319 320 335
302 303 302 302 302 302 303 303 303 305 307 308 308 309 309 309 311 311 309 309 309 310 314 310 312 312 312 310 312 314 317 317 318 320 320 320 320 318 319 320 319 319 320 320 329
302 303 304 305 303 303 304 305 307 308 308 308 309 309 309 310 315 313 308 308 308 310 311 310 312 312 314 313 311 313 313 314 316 318 318 319 319 321 319 319 319 319 320 321 326
303 306 306 304 304 305 307 307 307 308 308 308 309 310 310 313 312 309 309 308 309 310 310 311 312 312 313 312 312 313 313 311 313 314 315 317 318 319 319 319 320 319 319 320 321
305 305 304 305 305 307 308 307 307 308 308 309 310 310 311 314 309 309 309 309 310 310 311 311 312 313 313 313 312 312 312 312 312 312 313 316 317 317 318 318 318 319 320 321 321
306 306 306 306 307 308 309 311 310 310 309 310 310 310 312 312 311 310 310 311 311 311 312 312 311 312 312 314 313 313 314 313 313 313 314 312 313 316 315 317 318 319 319 320 321
304 307 307 308 309 310 311 311 310 310 310 311 310 310 315 311 310 311 312 312 312 312 311 312 311 311 312 312 312 313 313 313 313 314 313 313 313 315 314 315 317 317 319 320 321
302 308 307 309 310 310 310 310 310 310 310 311 312 312 314 311 312 311 313 313 313 313 312 312 312 312 312 313 314 314 314 313 313 314 315 314 314 315 314 315 317 317 318 319 319
303 306 308 309 310 310 310 310 311 310 310 311 311 314 313 313 312 311 311 313 313 313 313 313 313 314 315 315 315 313 313 313 313 313 313 314 314 314 315 316 317 317 318 319 319
305 302 308 308 309 310 310 312 313 314 312 313 313 313 312 312 311 311 311 313 314 314 316 314 315 316 315 315 315 314 314 314 315 314 313 315 316 316 316 315 317 318 319 320 320
307 303 308 309 308 310 310 312 312 311 313 313 313 312 312 311 311 311 311 313 314 315 315 316 316 315 315 315 315 316 316 316 315 315 315 315 314 314 315 317 317 318 319 320 321
306 303 309 309 308 310 310 311 310 311 314 314 312 312 312 311 312 312 312 313 314 315 316 316 316 315 315 315 315 316 316 316 316 316 316 315 315 315 315 313 314 316 317 320 321
304 305 310 309 311 309 312 310 310 311 317 312 311 312 311 312 313 312 311 312 314 315 315 315 315 315 316 316 316 317 316 316 315 314 318 316 318 317 316 315 314 315 316 318 320
303 308 310 309 308 311 309 310 312 312 314 311 311 311 312 312 312 313 313 313 314 315 314 316 315 315 317 317 316 316 315 316 316 316 315 316 316 316 316 315 315 315 316 318 320
303 308 309 309 310 308 309 310 312 317 312 312 312 313 314 313 312 312 312 312 313 315 315 315 314 314 316 316 316 315 316 317 316 316 321 317 317 317 316 316 315 317 315 318 320
303 308 308 308 307 307 309 312 317 311 312 313 313 313 313 314 313 313 314 314 315 318 317 316 316 316 315 317 316 315 319 320 321 321 319 316 316 316 315 315 317 317 317 318 321
303 307 308 308 305 308 311 313 311 311 313 313 313 314 314 313 313 313 314 316 315 315 317 317 317 316 316 317 316 317 317 320 322 319 316 315 314 315 316 315 315 316 318 318 321
303 308 310 304 305 307 311 314 313 313 312 313 314 314 314 314 313 313 315 316 315 315 320 318 317 315 314 315 315 317 318 316 317 315 316 315 315 315 316 315 315 320 318 319 322
303 311 308 304 306 311 312 312 314 312 312 313 315 313 314 314 314 315 314 314 315 314 314 314 318 314 314 314 315 315 315 320 319 317 318 315 314 314 315 315 315 318 322 321 322
305 310 306 304 307 310 312 312 312 311 311 313 314 314 314 313 314 314 314 314 314 315 312 312 310 314 315 317 317 316 316 317 316 315 318 316 314 316 314 316 315 318 320 322 322
307 310 303 304 310 310 311 309 308 311 311 312 313 314 314 313 314 313 314 313 312 312 311 311 311 317 316 315 315 315 316 316 319 317 316 316 317 320 314 316 317 320 321 322 323
307 307 306 307 310 311 310 310 309 310 311 312 313 313 313 312 314 313 313 312 311 312 308 309 314 318 319 317 316 316 316 316 316 317 317 319 317 315 316 323 318 322 322 323 333
306 310 307 307 307 309 310 310 310 309 310 311 312 312 313 314 312 313 313 312 311 311 312 311 313 316 319 319 316 317 315 315 315 318 317 315 315 314 318 323 322 323 322 329 337
306 309 306 309 308 308 309 309 310 310 310 310 313 313 314 313 312 313 314 313 311 311 311 310 316 317 317 318 318 318 316 316 316 315 317 316 320 318 319 319 324 323 336 333 331
306 305 305 306 307 308 307 310 309 309 310 313 314 313 313 313 314 314 313 313 312 311 311 311 316 317 319 319 317 317 315 315 316 317 318 317 320 319 321 321 327 336 331 329 328
304 304 305 306 308 308 308 307 308 308 309 310 312 312 312 314 311 312 312 312 310 310 310 310 315 318 322 321 319 322 317 317 316 317 311 320 318 321 326 334 334 331 329 327 326

GFSSW_850_thetae_165.txt.gz
Theta_e
303 303 303 303 303 303 303 303 303 303 303 304 305 306 307 307 308 313 314 312 311 308 314 316 313 311 310 314 315 318 321 322 322 323 324 325 326 324 323 322 323 323 326 327 345
303 303 304 304 304 303 304 304 304 305 306 307 307 308 308 309 310 314 312 308 309 308 317 313 313 314 312 312 314 317 320 321 322 322 323 323 325 324 322 322 322 322 322 322 325
304 306 306 305 304 304 305 306 306 306 307 307 308 309 310 310 317 314 308 309 309 309 316 314 312 314 314 313 313 315 317 318 319 319 320 321 323 323 323 323 322 322 323 322 322
306 305 305 305 305 306 307 307 307 307 307 307 309 310 310 314 318 316 309 309 309 308 314 313 313 314 316 316 314 314 314 315 316 316 317 321 321 323 322 322 322 322 321 322 321
306 306 306 306 306 307 308 309 309 309 308 309 310 310 311 318 314 311 310 311 311 312 312 313 314 315 316 315 314 315 315 314 313 314 315 317 321 321 321 322 322 321 321 322 323
304 307 307 307 308 309 310 311 310 310 309 311 311 310 316 318 312 312 313 313 312 313 313 313 314 315 315 316 316 315 314 314 314 314 314 315 318 318 319 320 321 322 322 321 322
304 307 307 308 309 310 310 309 309 309 309 311 311 310 316 315 312 313 313 313 314 313 313 314 313 314 315 316 315 315 316 316 315 314 315 314 315 316 316 318 320 321 321 322 323
307 303 307 308 309 310 309 309 310 310 310 309 311 314 317 313 313 314 313 314 314 314 314 313 313 314 314 314 315 315 316 316 315 315 315 315 315 316 314 315 317 319 320 322 322
310 305 306 308 308 309 309 309 311 311 310 311 314 317 317 314 314 313 313 314 314 315 315 314 313 314 314 317 317 317 316 316 315 315 315 316 316 316 315 315 316 317 318 319 322
311 307 303 308 308 309 309 311 313 313 314 316 315 316 316 315 314 312 313 313 314 315 316 315 315 317 317 317 318 318 317 316 316 315 315 315 315 316 315 316 317 316 317 319 320
309 305 304 309 309 308 309 315 315 317 315 313 313 314 314 314 313 312 314 313 314 315 318 317 318 318 317 318 318 318 318 317 316 316 316 317 315 316 317 316 318 317 318 319 320
305 304 307 309 309 309 312 313 312 312 314 315 314 314 314 314 313 314 314 314 316 318 317 318 318 318 318 318 317 317 318 318 318 316 316 317 317 316 316 316 317 318 319 320 321
304 304 309 310 310 313 314 313 312 312 316 315 313 313 314 313 314 315 314 314 316 317 317 316 318 318 318 319 318 318 319 318 318 318 317 318 319 318 317 316 315 317 318 319 320
304 306 310 309 313 312 313 312 312 313 321 314 313 314 313 314 316 314 314 314 315 317 316 317 318 317 317 318 317 319 317 318 319 320 319 317 320 319 318 318 317 316 317 318 320
304 306 308 309 312 312 311 312 313 315 323 314 314 313 314 315 315 315 314 314 316 317 316 318 317 317 318 318 317 319 318 319 319 320 319 320 319 319 319 318 318 317 315 317 319
305 306 308 312 314 310 311 313 316 323 316 315 315 316 316 316 315 315 315 315 315 316 317 317 316 317 318 317 317 317 319 319 319 319 324 320 319 319 318 318 318 318 316 316 318
305 305 307 309 309 309 312 315 321 315 314 316 315 316 317 317 316 316 316 317 318 321 319 318 318 318 319 318 317 317 320 321 323 326 323 318 319 319 319 319 318 318 317 316 317
305 306 312 310 308 310 314 318 317 314 314 315 315 316 316 316 316 317 317 318 317 317 321 320 320 318 318 319 318 319 320 320 321 325 321 318 318 320 320 319 317 317 317 317 316
307 314 313 308 309 311 316 317 315 315 314 314 315 316 316 316 316 315 317 318 316 316 322 322 319 317 315 315 317 319 320 318 321 322 322 319 319 320 318 317 318 317 317 318 317
309 314 313 307 306 314 316 312 313 313 313 314 316 315 317 317 317 316 315 316 316 316 316 317 318 315 316 315 316 317 317 321 320 322 321 318 317 316 318 317 318 318 317 318 318
313 313 312 307 313 314 315 313 312 309 312 314 315 316 316 315 315 315 315 315 316 316 314 313 311 315 314 317 319 319 318 318 319 321 321 317 315 317 319 320 319 318 317 320 320
313 316 311 309 314 313 314 312 310 312 311 313 314 315 315 315 315 314 314 314 313 312 312 313 312 317 316 315 316 317 319 318 322 318 318 317 319 317 317 318 319 318 318 321 321
314 313 312 311 315 314 313 312 312 312 312 313 314 315 314 315 315 315 315 313 312 313 309 310 314 319 319 320 315 317 318 319 319 320 321 322 320 316 316 317 317 321 317 321 323
314 317 314 312 312 312 313 314 313 311 311 312 314 314 315 316 314 315 315 313 313 313 314 313 312 315 320 319 318 320 317 318 318 321 320 318 317 317 316 317 318 322 317 321 335
316 316 312 315 314 313 313 313 313 312 311 311 314 314 315 316 316 316 315 316 314 313 312 311 315 316 318 317 318 321 321 318 317 317 319 318 317 318 317 319 322 322 320 338 339
314 314 312 314 312 313 311 313 310 311 311 312 314 314 314 315 316 316 316 315 315 311 311 313 315 317 321 320 320 319 318 318 318 319 319 318 322 319 319 318 322 324 335 335 335
313 312 311 314 315 315 313 310 310 310 311 311 313 314 315 315 314 314 315 314 315 312 311 313 314 316 322 321 322 323 315 312 314 314 310 318 319 319 317 325 328 334 336 334 332

GFSSW_850_thetae_168.txt.gz
Theta_e
305 306 306 306 306 305 304 305 305 305 305 305 306 306 307 308 309 314 317 314 310 308 313 317 319 315 313 311 314 317 319 321 321 322 323 323 325 325 326 326 325 324 324 339 348
306 306 306 305 305 305 306 306 306 306 306 306 306 308 309 310 311 318 315 309 308 308 312 317 315 314 315 314 313 315 318 318 320 321 321 322 323 323 325 325 324 324 324 329 339
306 306 306 306 305 306 307 308 308 308 308 307 307 310 310 310 320 316 310 310 310 310 315 316 315 314 314 315 315 314 316 317 318 318 319 320 320 320 322 324 324 323 323 323 327
305 307 307 306 307 308 309 310 310 309 308 309 311 311 310 314 320 317 311 310 309 310 316 315 314 315 316 316 316 315 314 314 315 316 317 318 318 318 321 323 324 324 323 322 323
307 305 307 307 308 309 309 309 309 308 309 311 311 310 310 321 318 314 311 312 314 315 314 314 315 316 317 317 316 316 316 316 315 315 314 315 316 317 319 322 323 323 323 323 323
311 305 307 307 308 309 309 308 308 309 309 308 311 310 315 322 314 315 315 315 314 315 315 315 315 315 315 316 317 316 316 316 315 315 315 315 315 315 317 320 322 321 322 323 323
312 310 304 308 308 309 309 308 309 311 309 310 310 310 318 318 314 314 314 314 315 315 315 315 315 315 315 316 316 316 317 317 317 316 316 315 315 315 315 317 320 320 320 322 323
311 311 307 306 308 308 308 308 311 312 310 311 310 311 318 316 314 314 315 314 315 316 316 316 314 314 315 315 316 316 316 316 316 316 316 315 314 315 315 315 316 317 318 320 322
309 308 306 304 308 309 308 308 313 313 312 314 317 318 318 316 315 315 314 314 314 315 316 316 315 315 315 316 317 317 318 318 317 317 317 315 314 316 315 316 316 316 317 318 320
309 305 305 305 309 309 308 313 315 315 316 317 318 317 318 317 316 315 314 314 315 315 316 317 317 318 318 318 318 318 318 318 318 319 317 316 315 316 315 316 316 317 317 316 318
309 304 306 308 309 308 312 316 314 319 318 314 314 316 314 314 315 314 314 315 315 315 317 317 318 319 319 319 318 319 320 319 319 318 318 317 317 317 317 316 316 317 317 317 317
310 305 307 308 311 312 315 316 313 313 314 316 316 315 315 315 315 315 316 316 316 318 318 319 319 319 318 319 319 319 319 319 318 318 319 318 319 317 317 317 316 317 317 319 318
311 305 307 308 313 314 315 315 313 314 316 318 314 314 315 314 315 316 316 316 316 317 317 317 318 318 318 318 320 320 320 320 319 319 319 318 319 320 317 318 317 316 317 318 319
311 305 306 307 313 315 313 312 313 314 321 317 315 316 315 316 317 317 316 316 316 316 317 318 318 318 318 318 318 318 318 319 320 319 320 320 322 320 319 319 320 318 316 317 318
311 305 306 311 313 315 310 313 315 318 328 316 316 315 316 317 317 317 317 316 317 317 316 318 317 317 318 318 318 319 318 319 321 321 321 322 320 320 319 320 320 320 317 317 317
314 305 306 313 313 312 310 315 319 325 320 316 315 315 316 317 317 316 317 316 317 318 318 318 317 318 318 318 318 318 318 319 320 321 325 320 320 321 320 321 319 321 319 317 317
314 306 310 312 311 310 312 317 322 323 316 315 314 314 316 318 317 317 317 318 319 322 321 321 319 318 319 320 320 320 321 326 326 326 324 318 319 321 320 320 321 320 318 318 317
314 313 313 311 310 310 314 320 323 317 316 314 314 315 316 316 316 316 317 318 318 319 322 322 322 319 319 318 321 321 322 322 323 325 322 318 324 321 321 321 320 319 318 319 318
315 316 317 312 310 312 318 320 317 314 313 313 314 315 316 315 315 316 316 318 319 319 321 322 319 317 315 315 315 318 322 319 320 320 324 319 318 321 319 320 320 319 318 319 319
316 316 318 312 312 316 320 316 316 313 311 313 316 314 315 315 316 315 316 315 315 317 316 316 317 315 314 315 315 317 317 323 320 321 320 319 320 318 319 320 319 320 320 318 319
317 318 314 314 314 316 318 316 314 313 312 313 313 315 315 315 314 317 316 315 316 316 314 315 313 316 314 315 316 318 320 320 319 320 322 320 317 318 319 319 318 319 320 318 318
317 319 316 314 318 317 316 315 314 314 313 313 313 315 315 315 318 317 317 316 315 314 315 313 313 317 315 315 316 316 320 319 322 317 319 320 321 318 318 317 317 319 319 319 317
316 318 317 316 318 317 317 316 315 315 314 313 313 314 315 316 318 316 316 315 315 315 313 311 314 318 317 319 320 319 318 319 320 320 324 323 321 318 317 317 317 318 318 320 318
317 321 319 317 317 318 317 317 315 313 312 312 312 313 315 315 314 317 316 316 315 314 314 311 312 315 318 317 318 319 320 319 319 320 322 322 320 318 318 317 317 317 318 320 320
319 319 318 320 319 319 317 317 316 313 312 311 313 314 314 317 317 316 315 316 317 315 312 312 315 315 315 316 318 319 320 319 320 320 324 321 318 318 317 319 319 317 318 320 333
317 317 316 316 316 320 320 318 315 314 312 312 312 314 315 317 318 317 316 318 318 313 312 312 316 314 316 317 320 323 317 314 315 315 315 318 321 318 316 317 319 318 319 322 331
316 315 315 317 318 320 321 316 315 313 312 311 313 314 316 316 314 314 316 317 317 315 314 313 315 316 318 318 321 321 311 311 311 310 311 315 315 312 314 317 319 320 322 326 334

GFSSW_850_thetae_171.txt.gz
Theta_e
307 307 306 306 306 306 306 306 307 307 307 306 306 306 307 309 310 315 318 315 311 307 308 318 317 317 315 313 312 312 312 313 314 316 317 319 318 320 319 320 321 324 325 348 351
308 307 307 306 306 306 307 308 308 309 308 307 308 309 310 310 313 319 315 310 309 310 309 314 316 315 314 314 314 309 308 313 314 314 315 317 317 317 318 318 319 321 327 346 352
312 307 307 307 307 307 308 308 308 307 308 309 311 311 311 311 318 317 313 310 310 309 312 316 316 315 314 314 314 312 309 311 313 314 316 316 316 317 316 316 317 319 322 327 344
313 311 306 307 307 308 308 307 307 307 308 309 311 310 310 314 320 316 310 310 311 312 314 314 315 315 313 313 316 312 313 313 313 314 313 312 314 314 315 316 316 317 321 322 322
312 312 310 306 307 308 308 307 307 309 309 308 310 310 311 319 322 316 312 313 314 315 315 315 315 315 312 313 315 314 313 315 315 315 315 315 313 313 313 314 315 316 319 321 321
310 310 312 306 307 308 308 307 308 311 309 308 309 310 311 321 314 314 314 314 314 314 315 315 315 315 315 314 312 315 315 315 316 315 315 313 313 314 314 314 314 315 316 320 320
311 306 308 307 306 308 308 307 309 312 310 313 310 310 311 312 315 314 314 315 315 315 315 315 315 315 314 313 315 315 313 314 314 315 313 315 312 313 314 314 314 314 315 317 319
312 307 306 305 306 308 308 307 311 314 312 314 310 311 312 317 316 315 314 315 314 314 315 316 316 316 315 314 314 314 313 313 313 314 314 314 313 314 315 315 314 314 314 315 316
313 306 305 305 307 308 307 313 315 315 313 316 317 320 319 317 317 316 315 314 314 314 314 315 316 316 315 313 313 313 314 314 315 316 315 313 313 314 315 314 314 314 315 315 314
313 307 306 307 308 312 313 315 314 315 316 319 318 319 318 317 316 316 315 314 314 315 315 315 316 314 313 314 316 316 316 316 317 318 317 315 315 314 315 314 314 316 316 316 315
315 307 306 307 312 313 316 316 313 316 314 316 314 318 316 315 315 315 315 315 315 316 314 315 315 316 316 316 317 317 317 317 317 317 317 316 315 315 314 315 314 315 315 315 316
316 307 305 307 313 314 314 316 313 313 314 315 315 317 315 315 315 315 315 316 316 315 315 316 317 317 318 318 318 318 318 318 318 318 318 317 316 316 316 314 315 316 316 316 316
317 307 305 308 312 315 316 312 313 314 314 317 317 315 315 315 315 315 317 316 315 315 314 314 315 316 316 316 317 316 318 318 318 319 318 318 319 317 317 317 317 316 316 316 316
317 310 305 310 314 317 311 311 313 314 317 322 316 315 315 315 316 317 317 316 316 315 315 315 315 316 316 316 316 317 317 318 318 320 320 319 321 316 317 317 317 317 317 317 317
317 313 305 311 313 311 310 311 316 319 323 315 314 315 313 314 316 318 316 317 316 316 316 317 316 315 317 317 317 316 316 316 317 318 318 320 322 319 317 317 317 317 318 318 317
316 312 309 310 313 311 310 312 317 323 326 315 314 313 313 315 316 315 316 315 315 316 316 316 317 318 318 319 319 318 319 318 318 318 322 320 321 319 318 318 317 317 318 318 318
316 313 311 311 312 311 310 316 320 323 314 314 311 312 314 314 315 315 314 314 317 319 320 319 319 318 318 318 318 319 321 323 324 322 322 318 320 319 317 317 317 317 317 318 319
316 314 315 312 311 312 316 317 324 317 313 312 312 314 314 314 315 314 314 314 317 317 316 320 319 317 316 315 315 315 319 322 323 324 323 319 321 318 317 318 318 317 319 318 318
317 316 318 314 311 312 317 321 316 314 313 313 313 313 313 314 314 313 314 315 315 317 318 317 318 315 314 314 313 314 317 319 320 319 320 317 315 315 316 317 318 317 319 318 318
317 319 317 315 314 314 317 322 315 315 314 314 314 313 313 314 315 315 316 316 316 317 315 315 316 315 314 313 314 314 316 318 319 316 317 316 316 315 318 318 319 318 317 317 318
318 319 315 318 317 316 317 316 316 315 314 314 313 313 313 314 313 315 317 315 316 316 315 314 313 314 313 314 314 316 316 318 320 322 321 317 315 315 317 318 317 316 317 317 318
316 320 319 317 317 317 316 317 316 316 315 314 313 313 313 312 315 315 315 314 315 315 316 314 312 315 313 312 313 313 316 318 321 319 317 316 316 315 314 316 314 313 316 316 317
317 319 320 318 319 319 318 318 318 317 314 313 313 312 312 313 314 313 313 315 315 315 313 310 312 315 314 314 317 319 319 319 319 318 320 320 316 316 315 316 315 315 316 316 317
316 319 318 318 317 318 319 319 320 317 315 313 312 312 312 312 312 314 316 314 315 316 315 311 311 315 314 314 313 314 314 315 317 321 320 320 318 317 316 316 316 316 316 316 319
318 318 318 317 317 318 318 320 320 316 315 313 312 312 311 313 315 316 314 314 314 316 315 312 314 313 313 314 314 315 316 316 317 319 322 319 319 318 318 316 317 317 318 319 319
317 316 316 316 317 318 318 319 319 319 315 313 313 313 312 314 315 315 314 314 315 313 311 311 314 313 313 314 315 318 311 311 312 313 313 313 314 312 312 311 312 316 318 319 320
315 315 314 316 316 317 318 317 319 316 314 314 313 312 315 315 314 314 314 316 318 313 312 313 313 314 315 315 316 319 309 308 308 308 308 310 309 308 307 307 309 312 317 318 320

GFSSW_850_thetae_174.txt.gz
Theta_e
313 310 308 307 306 306 307 308 308 307 307 308 309 310 311 310 312 317 314 312 308 309 309 314 316 315 316 315 313 311 306 307 311 314 313 315 313 316 316 317 317 317 317 339 357
313 313 309 307 307 307 307 307 307 307 307 308 309 310 311 311 316 316 311 310 310 310 311 313 314 314 314 313 314 308 303 307 310 311 311 313 313 314 314 315 316 316 319 325 345
312 312 313 308 307 307 307 307 307 307 309 308 309 310 310 312 318 315 310 310 310 311 314 314 314 315 314 314 313 310 307 307 310 311 312 311 312 313 313 313 314 315 315 315 319
312 309 312 311 307 307 307 307 307 310 309 307 308 310 310 314 317 315 312 312 314 314 315 315 315 314 311 311 313 312 312 311 311 312 311 309 312 312 313 313 313 314 314 315 315
312 309 308 311 307 307 308 307 307 311 310 310 309 308 311 318 321 316 314 313 314 314 315 315 315 314 311 311 313 312 311 313 314 314 313 314 312 312 312 314 314 314 314 314 315
313 308 307 307 306 307 308 307 307 312 311 311 312 308 310 315 314 314 314 314 314 314 315 315 315 315 314 312 311 313 313 313 314 314 314 313 312 313 314 314 313 313 314 314 314
313 308 306 306 306 307 307 307 311 313 313 313 311 309 310 315 315 315 314 314 315 315 315 315 316 315 315 311 314 313 312 312 312 314 312 313 312 313 315 314 314 314 315 314 314
315 308 306 306 307 308 308 314 315 315 314 313 316 318 312 317 317 316 315 314 314 314 314 315 315 316 316 315 314 312 311 311 311 313 314 313 313 313 314 314 314 314 314 314 314
316 307 306 307 311 313 314 315 313 313 314 317 317 317 318 316 316 317 316 315 314 314 314 314 316 316 315 313 311 311 312 313 314 314 313 312 313 313 314 314 313 314 314 314 314
317 309 306 308 313 315 316 315 313 315 313 315 317 317 316 315 316 315 315 315 314 314 314 314 315 313 311 311 316 314 314 314 314 315 315 315 315 314 315 314 313 313 313 314 314
316 314 306 306 313 314 315 314 312 313 313 313 313 314 314 315 315 315 315 315 315 315 313 315 312 312 313 313 315 316 316 317 316 316 315 316 316 316 315 314 311 312 313 314 315
315 315 306 308 312 314 314 311 313 313 313 313 314 314 315 316 315 315 315 315 315 313 313 312 313 313 314 315 316 316 317 317 317 317 316 316 317 316 314 313 315 315 316 316 315
316 316 308 309 314 315 311 312 314 315 313 315 318 317 316 315 315 315 316 316 314 313 313 312 313 314 314 314 315 315 315 315 315 316 316 316 318 317 317 315 317 317 317 317 317
315 316 308 309 312 310 309 311 312 318 316 318 319 314 312 313 314 316 315 314 314 314 313 313 313 314 315 315 314 315 315 316 316 316 317 319 320 318 317 317 315 316 316 317 317
314 316 310 310 313 311 311 310 312 318 314 315 312 312 313 313 314 315 313 312 313 315 314 316 315 315 315 315 319 320 318 317 317 316 314 317 322 318 317 318 316 316 317 317 318
316 316 312 311 311 311 312 316 317 318 316 313 311 311 312 313 313 314 313 313 315 317 317 314 314 316 317 319 318 316 316 317 317 316 320 317 318 317 316 316 316 316 316 317 317
316 314 312 313 311 312 317 317 317 313 312 311 311 311 312 312 312 314 313 312 314 312 314 315 317 316 317 316 315 314 315 317 320 319 321 317 318 317 316 316 316 315 316 317 317
317 316 315 314 314 312 317 314 316 314 312 312 312 311 312 312 312 314 313 314 315 315 310 317 315 314 315 314 314 312 313 312 319 314 317 318 321 318 315 316 316 317 316 317 317
318 317 317 316 315 314 317 315 313 314 314 313 312 312 311 312 313 311 311 314 314 315 313 317 316 314 314 314 313 311 312 314 317 317 318 315 314 314 314 314 315 315 316 317 317
318 317 316 317 316 314 313 315 315 316 316 313 312 313 312 311 312 310 313 315 315 316 314 315 316 315 314 312 313 312 313 313 318 321 320 315 314 314 315 316 315 315 315 317 317
318 318 318 318 317 316 312 313 315 317 317 315 313 312 311 311 311 311 313 313 314 316 313 314 313 315 314 314 312 311 312 317 317 318 317 318 315 311 314 314 314 314 315 315 316
317 315 319 318 316 315 314 316 318 319 317 313 312 311 311 310 310 311 312 312 313 315 314 312 313 315 314 313 311 311 314 315 318 320 319 316 317 314 311 313 313 313 314 314 315
317 317 318 318 314 313 315 318 318 319 315 313 312 311 310 311 309 310 312 314 314 313 313 312 312 314 312 310 312 316 315 316 318 319 319 320 318 314 314 314 314 314 315 316 318
316 313 316 316 315 315 314 317 319 318 317 315 313 311 310 310 309 310 313 313 313 314 316 312 311 316 316 314 311 312 313 313 315 316 316 317 317 317 316 316 315 315 315 316 316
317 315 316 312 314 314 314 316 317 318 318 315 310 312 312 311 311 314 313 312 312 316 312 310 313 314 314 313 313 313 314 314 313 315 316 317 317 315 314 314 310 309 311 315 316
316 315 315 314 315 313 313 315 316 317 316 314 315 312 310 313 313 313 313 313 312 313 312 310 313 314 314 313 313 314 314 310 311 310 311 312 311 309 310 308 309 308 307 309 314
315 315 314 313 312 313 313 315 315 315 316 316 315 311 310 313 310 312 314 312 311 316 312 313 312 315 313 312 313 315 311 307 308 308 308 309 308 308 307 306 306 305 305 306 309